Morgantown, WV

1:11 AM EDT on May 22, 2018 (GMT -0400)
Morgantown Municipal-Hart

Weather History for KMGW - April, 2014

Change the Weather History Date:

Wednesday, April 23, 2014

  Actual Average Record
Temperature  
Mean Temperature 49 °F 55 °F  
Max Temperature 55 °F 67 °F 89 °F (1960)
Min Temperature 42 °F 44 °F 23 °F (1936)
Degree Days  
Heating Degree Days 16 10  
Month to date heating degree days 237 315  
Since 1 July heating degree days 5226 4916  
Cooling Degree Days 0 1  
Month to date cooling degree days 18 5  
Year to date cooling degree days 18 7  
Moisture  
Dew Point 31 °F    
Average Humidity 51    
Maximum Humidity 60    
Minimum Humidity 41    
Precipitation  
Precipitation 0.00 in 0.12 in 1.35 in (1973)
Month to date precipitation 2.10 2.69  
Year to date precipitation 10.03 11.75  
Sea Level Pressure  
Sea Level Pressure 29.96 in    
Wind  
Wind Speed 7 mph (NW)    
Max Wind Speed 13 mph    
Max Gust Speed 21 mph    
Visibility 10 miles    
Events      
T = Trace of Precipitation, MM = Missing Value Source: NWS Daily Summary

Daily Weather History Graph

Daily Weather History Graph

Search for Another Location

Airport or City:

Astronomy

Apr. 23, 2014 Rise Set
Actual Time 6:30 AM EDT 8:05 PM EDT
Civil Twilight 6:02 AM EDT 8:34 PM EDT
Nautical Twilight 5:28 AM EDT 9:08 PM EDT
Astronomical Twilight 4:51 AM EDT 9:45 PM EDT
Moon 3:00 AM EDT (4/23) 2:13 PM EDT (4/23)
Length of Visible Light 14h 31m
Length of Day
13h 34m
Waning Crescent, 35% of the Moon is Illuminated
Apr 23
Waning Crescent
Apr 29
New
May 6
First Quarter
May 14
Full
May 21
Last Quarter

Hourly Weather History & Observations

Time (EDT) Temp. Windchill Dew Point Humidity Pressure Visibility Wind Dir Wind Speed Gust Speed Precip Events Conditions
12:53 AM 50.0 °F - 36.0 °F 59% 29.83 in 10.0 mi NW 3.5 mph - N/A   Overcast
1:53 AM 48.9 °F - 33.1 °F 54% 29.83 in 10.0 mi Calm Calm - N/A   Scattered Clouds
2:53 AM 48.0 °F - 33.1 °F 56% 29.83 in 10.0 mi NW 6.9 mph - N/A   Overcast
3:53 AM 46.9 °F - 33.1 °F 59% 29.84 in 10.0 mi NW 8.1 mph - N/A   Overcast
4:40 AM 46.0 °F 41.9 °F 33.1 °F 61% 29.86 in 10.0 mi NNW 8.1 mph - N/A   Overcast
4:53 AM 46.0 °F 43.1 °F 33.1 °F 61% 29.85 in 10.0 mi NNW 5.8 mph - N/A   Overcast
5:53 AM 45.0 °F 40.1 °F 30.9 °F 58% 29.87 in 10.0 mi WNW 9.2 mph - N/A   Overcast
6:53 AM 44.1 °F 40.1 °F 30.9 °F 60% 29.90 in 10.0 mi NW 6.9 mph - N/A   Overcast
7:53 AM 44.1 °F 39.5 °F 30.9 °F 60% 29.94 in 10.0 mi NNW 8.1 mph - N/A   Overcast
8:00 AM 44.1 °F 40.1 °F 30.9 °F 60% 29.93 in 10.0 mi Variable 6.9 mph - N/A   Overcast
8:22 AM 44.1 °F 39.5 °F 30.9 °F 60% 29.95 in 10.0 mi WNW 8.1 mph - N/A   Overcast
8:53 AM 45.0 °F 41.8 °F 30.9 °F 58% 29.96 in 10.0 mi NW 5.8 mph - N/A   Overcast
9:17 AM 45.0 °F 40.1 °F 30.9 °F 58% 29.96 in 10.0 mi WNW 9.2 mph - N/A   Overcast
9:53 AM 44.1 °F 40.1 °F 30.0 °F 58% 29.98 in 10.0 mi NW 6.9 mph 17.3 mph N/A   Overcast
1:53 PM 50.0 °F - 30.9 °F 48% 30.00 in 10.0 mi Variable 6.9 mph - N/A   Unknown
2:53 PM 52.0 °F - 32.0 °F 47% 29.99 in 10.0 mi NNW 11.5 mph 17.3 mph N/A   Mostly Cloudy
4:53 PM 55.0 °F - 32.0 °F 42% 30.00 in 10.0 mi NW 8.1 mph 16.1 mph N/A   Overcast
5:53 PM 54.0 °F - 30.9 °F 41% 30.01 in 10.0 mi NNW 11.5 mph 20.7 mph N/A   Mostly Cloudy
6:53 PM 52.0 °F - 30.0 °F 43% 30.03 in 10.0 mi NNW 12.7 mph - N/A   Scattered Clouds
7:53 PM 48.9 °F - 30.0 °F 48% 30.05 in 10.0 mi Variable 5.8 mph - N/A   Partly Cloudy
8:53 PM 46.9 °F - 28.9 °F 50% 30.06 in 10.0 mi NW 6.9 mph - N/A   Clear
9:53 PM 46.0 °F 44.8 °F 28.9 °F 51% 30.08 in 10.0 mi WNW 3.5 mph - N/A   Clear
10:53 PM 45.0 °F - 30.0 °F 56% 30.09 in 10.0 mi Calm Calm - N/A   Clear
11:53 PM 43.0 °F - 28.9 °F 58% 30.10 in 10.0 mi Calm Calm - N/A   Clear